Simultaneous Nadir Overpasses (SNOs) Predictions

Prediction of SNOs between NOAA-20 and METOP-B Satellite Orbit:

Table of predicted SNOs for the next 14.0 days since TLE Epoch: 7/26/2019
Index Date (NOAA-20) Time (NOAA-20) Lat,Lon (NOAA-20) SZA (NOAA-20 ) Date (METOP-B) Time (METOP-B) Lat,Lon (METOP-B) SZA (METOP-B ) Distance(km) Time Diff (sec)
1 08/01/2019 23:34:24 -73.54, -3.50 124.07 08/01/2019 23:35:30 -73.52, -0.50 124.27 94.79 66
2 08/02/2019 00:25:06 73.34, 164.26 55.72 08/02/2019 00:26:15 73.27, 166.27 55.53 64.76 69
3 08/02/2019 01:15:48 -73.24, -28.22 124.38 08/02/2019 01:16:58 -73.20, -26.56 124.53 53.56 70
4 08/02/2019 02:06:30 73.04, 139.53 55.41 08/02/2019 02:07:42 73.00, 140.34 55.30 26.65 72
5 08/02/2019 02:57:12 -72.95, -52.96 124.69 08/02/2019 02:58:25 -72.93, -52.48 124.75 15.54 73
6 08/02/2019 03:47:56 72.85, 114.57 55.21 08/02/2019 03:49:07 72.83, 114.63 55.17 3.01 71
7 08/02/2019 04:38:39 -72.81, -78.03 124.83 08/02/2019 04:39:49 -72.81, -78.08 124.84 1.79 70
8 08/02/2019 05:29:25 72.80, 89.29 55.18 08/02/2019 05:30:29 72.81, 89.25 55.17 1.30 64
9 08/02/2019 06:20:09 -72.81,-103.42 124.80 08/02/2019 06:21:11 -72.79,-103.47 124.84 3.28 62
10 08/02/2019 07:10:55 72.81, 63.90 55.21 08/02/2019 07:11:51 72.78, 63.86 55.17 3.16 56
11 08/02/2019 08:01:39 -72.82,-128.81 124.78 08/02/2019 08:02:32 -72.82,-128.74 124.80 2.10 53
12 08/02/2019 08:52:24 72.82, 38.51 55.23 08/02/2019 08:53:11 72.81, 38.58 55.21 2.61 47
13 08/02/2019 09:43:07 -72.78,-154.09 124.81 08/02/2019 09:43:53 -72.80,-154.13 124.80 2.39 46
14 08/02/2019 10:33:53 72.78, 13.22 55.20 08/02/2019 10:34:33 72.79, 13.20 55.21 2.08 40
15 08/02/2019 11:24:37 -72.78,-179.48 124.78 08/02/2019 11:25:15 -72.77,-179.51 124.80 1.53 38
16 08/02/2019 12:15:23 72.78, -12.17 55.23 08/02/2019 12:15:55 72.77, -12.18 55.21 1.37 32
17 08/02/2019 13:06:07 -72.79, 155.13 124.76 08/02/2019 13:06:36 -72.80, 155.21 124.76 2.93 29
18 08/02/2019 13:56:53 72.79, -37.56 55.26 08/02/2019 13:57:16 72.80, -37.46 55.26 3.32 23
19 08/02/2019 14:47:37 -72.80, 129.74 124.73 08/02/2019 14:47:58 -72.78, 129.83 124.76 3.32 21
20 08/02/2019 15:38:22 72.75, -62.84 55.23 08/02/2019 15:38:38 72.78, -62.85 55.25 3.67 16
21 08/02/2019 16:29:06 -72.76, 104.46 124.76 08/02/2019 16:29:20 -72.76, 104.44 124.76 0.81 14
22 08/02/2019 17:19:52 72.75, -88.23 55.25 08/02/2019 17:20:00 72.76, -88.23 55.25 0.47 8
23 08/02/2019 18:10:36 -72.76, 79.07 124.73 08/02/2019 18:10:42 -72.74, 79.06 124.76 2.54 6
24 08/02/2019 19:01:22 72.76,-113.62 55.28 08/02/2019 19:01:22 72.74,-113.62 55.25 2.73 0
25 08/02/2019 19:52:06 -72.77, 53.68 124.71 08/02/2019 19:52:03 -72.77, 53.78 124.71 3.34 3
26 08/02/2019 20:42:51 72.72,-138.90 55.25 08/02/2019 20:42:44 72.72,-139.00 55.25 3.14 7
27 08/02/2019 21:33:35 -72.73, 28.39 124.74 08/02/2019 21:33:25 -72.75, 28.40 124.71 2.41 10
28 08/02/2019 22:24:21 72.73,-164.29 55.27 08/02/2019 22:24:05 72.75,-164.28 55.30 2.24 16
29 08/02/2019 23:15:05 -72.73, 3.00 124.71 08/02/2019 23:14:47 -72.73, 3.01 124.71 0.80 18
30 08/03/2019 00:05:51 72.73, 170.32 55.30 08/03/2019 00:05:27 72.72, 170.34 55.30 1.24 24
31 08/03/2019 00:56:34 -72.69, -22.28 124.74 08/03/2019 00:56:09 -72.71, -22.37 124.71 3.45 25
32 08/03/2019 01:47:20 72.69, 145.03 55.27 08/03/2019 01:46:49 72.70, 144.95 55.30 2.94 31
33 08/03/2019 02:38:04 -72.70, -47.67 124.71 08/03/2019 02:37:31 -72.68, -47.75 124.71 3.17 33
34 08/03/2019 03:28:50 72.70, 119.64 55.30 08/03/2019 03:28:11 72.68, 119.57 55.30 2.96 39
35 08/03/2019 04:19:34 -72.71, -73.06 124.69 08/03/2019 04:18:52 -72.71, -73.03 124.67 1.30 42
36 08/03/2019 05:10:20 72.70, 94.25 55.32 08/03/2019 05:09:32 72.71, 94.29 55.34 1.45 48
37 08/03/2019 06:01:04 -72.71, -98.45 124.66 08/03/2019 06:00:14 -72.69, -98.42 124.67 2.40 50
38 08/03/2019 06:51:50 72.71, 68.86 55.35 08/03/2019 06:50:54 72.69, 68.91 55.34 2.91 56
39 08/03/2019 07:42:33 -72.67,-123.73 124.69 08/03/2019 07:41:36 -72.67,-123.80 124.67 2.25 57
40 08/03/2019 08:33:19 72.67, 43.58 55.32 08/03/2019 08:32:16 72.67, 43.52 55.34 1.80 63
41 08/03/2019 09:24:03 -72.68,-149.12 124.67 08/03/2019 09:22:57 -72.70,-149.08 124.63 3.10 66
42 08/03/2019 10:14:49 72.68, 18.19 55.35 08/03/2019 10:13:37 72.70, 18.24 55.38 3.03 72
43 08/03/2019 11:05:33 -72.68,-174.51 124.64 08/03/2019 11:04:19 -72.68,-174.46 124.63 1.66 74
44 08/03/2019 11:56:15 72.48, -6.79 55.15 08/03/2019 11:55:02 72.52, -7.45 55.25 22.67 73
45 08/03/2019 12:46:58 -72.44, 160.61 124.89 08/03/2019 12:45:45 -72.46, 159.74 124.80 29.24 73
46 08/03/2019 13:37:39 72.18, -31.57 54.84 08/03/2019 13:36:30 72.19, -33.44 54.99 63.47 69
47 08/03/2019 14:28:22 -72.14, 135.82 125.20 08/03/2019 14:27:13 -72.13, 133.76 125.07 70.31 69




NCC Satellite Simultaneous Nadir Overpasses (SNOs) Prediction Service
